Nashua, NH

11:46 AM EST on December 06, 2019 (GMT -0500)
Boire

Weather History for KASH - November, 2019

Change the Weather History Date:

Friday, November 22, 2019

  Actual Average Record
Temperature  
Mean Temperature 42 °F -  
Max Temperature 50 °F 44 °F 68 °F (1953)
Min Temperature 34 °F 26 °F 9 °F (2018)
Degree Days  
Heating Degree Days 23    
Moisture  
Dew Point 34 °F    
Average Humidity 76    
Maximum Humidity 100    
Minimum Humidity 47    
Precipitation  
Precipitation 0.01 in - - ()
Sea Level Pressure  
Sea Level Pressure 29.71 in    
Wind  
Wind Speed 4 mph ()    
Max Wind Speed 22 mph    
Max Gust Speed 33 mph    
Visibility 9.6 miles    
Events Rain    
Averages and records for this station are not official NWS values.
T = Trace of Precipitation, MM = Missing Value Source: Averaged Metar Reports

Daily Weather History Graph

Daily Weather History Graph

Search for Another Location

Airport or City:

Astronomy

Nov. 22, 2019 Rise Set
Actual Time 6:46 AM EST 4:17 PM EST
Civil Twilight 6:15 AM EST 4:48 PM EST
Nautical Twilight 5:40 AM EST 5:23 PM EST
Astronomical Twilight 5:06 AM EST 5:56 PM EST
Moon 1:39 AM EST (11/22) 2:24 PM EST (11/22)
Length of Visible Light 10h 33m
Length of Day
9h 31m
Waning Crescent, 20% of the Moon is Illuminated
Nov 22
Waning Crescent
Nov 26
New
Dec 4
First Quarter
Dec 12
Full
Dec 18
Last Quarter

Hourly Weather History & Observations

Time (EST) Temp. Windchill Dew Point Humidity Pressure Visibility Wind Dir Wind Speed Gust Speed Precip Events Conditions
12:56 AM 35.1 °F - 35.1 °F 100% 29.95 in 10.0 mi Calm Calm - N/A Rain Light Rain
2:56 AM 34.0 °F - 34.0 °F 100% 29.88 in 10.0 mi Calm Calm - N/A   Mostly Cloudy
3:56 AM 36.0 °F - 36.0 °F 100% 29.84 in 10.0 mi Calm Calm - N/A   Overcast
4:56 AM 37.9 °F - 37.9 °F 100% 29.81 in 10.0 mi Calm Calm - N/A   Overcast
5:56 AM 39.0 °F - 39.0 °F 100% 29.79 in 10.0 mi Calm Calm - N/A   Overcast
6:56 AM 43.0 °F - 39.9 °F 89% 29.78 in 10.0 mi Calm Calm - N/A   Overcast
7:56 AM 45.0 °F 43.5 °F 39.9 °F 82% 29.74 in 10.0 mi Variable 3.5 mph - N/A   Overcast
8:56 AM 46.0 °F 43.9 °F 39.0 °F 76% 29.71 in 10.0 mi Variable 4.6 mph - N/A   Overcast
9:56 AM 48.0 °F - 39.9 °F 74% 29.66 in 10.0 mi Calm Calm - N/A   Overcast
10:56 AM 48.9 °F - 39.9 °F 71% 29.65 in 10.0 mi Variable 3.5 mph - N/A   Overcast
11:56 AM 50.0 °F - 41.0 °F 71% 29.59 in 10.0 mi Variable 3.5 mph - 0.00 in Rain Light Rain
12:56 PM 50.0 °F - 44.1 °F 80% 29.59 in 7.0 mi West 5.8 mph - 0.00 in Rain Light Rain
1:17 PM 48.2 °F - 46.4 °F 93% 29.57 in 7.0 mi West 6.9 mph - 0.00 in Rain Light Rain
1:56 PM 46.0 °F 43.1 °F 45.0 °F 96% 29.60 in 6.0 mi West 5.8 mph - 0.00 in Rain Light Rain
2:56 PM 44.1 °F 38.6 °F 39.9 °F 85% 29.59 in 10.0 mi WSW 10.4 mph 17.3 mph 0.00 in Rain Light Rain
3:56 PM 43.0 °F 36.8 °F 35.1 °F 74% 29.59 in 10.0 mi West 11.5 mph 20.7 mph 0.01 in   Overcast
4:56 PM 42.1 °F 36.6 °F 33.1 °F 70% 29.61 in 10.0 mi West 9.2 mph - N/A   Mostly Cloudy
5:56 PM 42.1 °F 37.1 °F 30.0 °F 62% 29.64 in 10.0 mi West 8.1 mph 19.6 mph N/A   Overcast
6:56 PM 41.0 °F 34.3 °F 28.0 °F 60% 29.67 in 10.0 mi WNW 11.5 mph 18.4 mph N/A   Overcast
7:56 PM 39.9 °F 31.8 °F 24.1 °F 53% 29.72 in 10.0 mi WNW 15.0 mph 25.3 mph N/A   Mostly Cloudy
8:56 PM 39.9 °F 31.8 °F 24.1 °F 53% 29.75 in 10.0 mi WNW 15.0 mph 32.2 mph N/A   Mostly Cloudy
9:56 PM 37.9 °F 27.3 °F 19.0 °F 47% 29.78 in 10.0 mi WNW 21.9 mph 33.4 mph N/A   Partly Cloudy
10:56 PM 36.0 °F 24.7 °F 18.0 °F 48% 29.81 in 10.0 mi WNW 21.9 mph 27.6 mph N/A   Clear
11:56 PM 34.0 °F 23.8 °F 17.1 °F 50% 29.83 in 10.0 mi WNW 16.1 mph - N/A   Clear